| time (UTC) | temp F | wind direction | speed MPH | gust MPH | rain 1hr in | rain 24hr in | rain mn in | humidity % | barometer mb |
| 20260509031602 | 51 | 246 | 0.0 | 0.0 | 0.00 | 0.04 | 0.04 | 86 | 1013.5 |
| 20260509030604 | 51 | 246 | 0.0 | 0.0 | 0.00 | 0.04 | 0.04 | 86 | 1013.6 |
| 20260509025604 | 51 | 246 | 0.0 | 0.0 | 0.00 | 0.04 | 0.04 | 86 | 1013.5 |
| 20260509024603 | 51 | 246 | 0.0 | 0.0 | 0.00 | 0.04 | 0.04 | 85 | 1013.3 |
| 20260509023603 | 51 | 246 | 0.0 | 0.0 | 0.00 | 0.04 | 0.04 | 85 | 1013.5 |
| 20260509022625 | 51 | 246 | 0.0 | 0.0 | 0.00 | 0.04 | 0.04 | 85 | 1013.3 |
| 20260509021603 | 51 | 246 | 0.0 | 0.0 | 0.00 | 0.04 | 0.04 | 84 | 1013.2 |
| 20260509020604 | 51 | 246 | 0.0 | 0.0 | 0.00 | 0.04 | 0.04 | 84 | 1013.1 |
| 20260509015624 | 51 | 246 | 0.0 | 0.0 | 0.00 | 0.04 | 0.04 | 84 | 1012.9 |
| 20260509014603 | 51 | 246 | 0.0 | 0.0 | 0.00 | 0.04 | 0.04 | 83 | 1012.8 |
| 20260509013604 | 51 | 246 | 0.0 | 0.0 | 0.00 | 0.04 | 0.04 | 82 | 1012.5 |
| 20260509012603 | 52 | 246 | 0.0 | 0.0 | 0.00 | 0.04 | 0.04 | 82 | 1012.5 |
| 20260509011624 | 52 | 246 | 0.0 | 0.0 | 0.00 | 0.04 | 0.04 | 81 | 1012.4 |
| 20260509010603 | 52 | 246 | 0.0 | 0.0 | 0.00 | 0.04 | 0.04 | 81 | 1012.2 |
| 20260509005603 | 52 | 246 | 0.0 | 0.0 | 0.00 | 0.04 | 0.04 | 81 | 1012.1 |
| 20260509004603 | 52 | 246 | 0.0 | 0.0 | 0.00 | 0.04 | 0.04 | 80 | 1011.8 |
| 20260509003604 | 53 | 246 | 0.0 | 0.0 | 0.00 | 0.04 | 0.04 | 80 | 1011.8 |
| 20260509002603 | 53 | 246 | 0.0 | 0.0 | 0.00 | 0.04 | 0.04 | 78 | 1011.6 |
| 20260509001603 | 53 | 246 | 0.0 | 0.0 | 0.00 | 0.04 | 0.04 | 78 | 1011.6 |
| 20260509000603 | 54 | 246 | 0.0 | 0.0 | 0.00 | 0.04 | 0.04 | 77 | 1011.7 |
| 20260508235603 | 54 | 246 | 0.0 | 0.0 | 0.00 | 0.04 | 0.04 | 75 | 1011.7 |
| 20260508234603 | 55 | 246 | 0.0 | 0.0 | 0.00 | 0.04 | 0.04 | 74 | 1011.8 |
| 20260508233624 | 55 | 246 | 0.0 | 0.0 | 0.00 | 0.04 | 0.04 | 73 | 1011.8 |
| 20260508232603 | 56 | 246 | 0.0 | 0.0 | 0.00 | 0.04 | 0.04 | 70 | 1011.4 |
| 20260508231602 | 57 | 246 | 0.0 | 0.0 | 0.00 | 0.04 | 0.04 | 70 | 1011.5 |
| 20260508230603 | 57 | 246 | 0.0 | 0.0 | 0.00 | 0.04 | 0.04 | 68 | 1011.5 |
| 20260508225603 | 57 | 246 | 0.0 | 0.0 | 0.00 | 0.04 | 0.04 | 66 | 1011.4 |
| 20260508224604 | 57 | 246 | 0.0 | 0.0 | 0.00 | 0.04 | 0.04 | 65 | 1011.3 |
| 20260508223603 | 57 | 246 | 0.0 | 0.0 | 0.00 | 0.04 | 0.04 | 65 | 1011.4 |
| 20260508222624 | 57 | 246 | 0.0 | 1.0 | 0.00 | 0.04 | 0.04 | 65 | 1011.3 |
| 20260508221603 | 57 | 246 | 0.0 | 0.0 | 0.00 | 0.04 | 0.04 | 63 | 1011.4 |
| 20260508220603 | 57 | 246 | 0.0 | 4.0 | 0.00 | 0.04 | 0.04 | 66 | 1011.4 |
| 20260508215603 | 57 | 246 | 0.0 | 0.0 | 0.00 | 0.04 | 0.04 | 65 | 1011.3 |
| 20260508214603 | 58 | 246 | 0.0 | 3.0 | 0.00 | 0.04 | 0.04 | 63 | 1011.3 |
| 20260508213604 | 58 | 246 | 0.0 | 3.0 | 0.00 | 0.04 | 0.04 | 64 | 1011.4 |
| 20260508212603 | 57 | 245 | 0.0 | 4.0 | 0.00 | 0.04 | 0.04 | 64 | 1011.3 |
| 20260508211603 | 57 | 245 | 0.0 | 7.0 | 0.00 | 0.04 | 0.04 | 67 | 1011.4 |
| 20260508210632 | 57 | 246 | 2.0 | 8.0 | 0.00 | 0.04 | 0.04 | 64 | 1011.8 |
| 20260508205603 | 57 | 250 | 0.0 | 8.0 | 0.00 | 0.04 | 0.04 | 62 | 1011.9 |
| 20260508204604 | 57 | 263 | 0.0 | 7.0 | 0.00 | 0.04 | 0.04 | 62 | 1011.8 |
| 20260508203603 | 57 | 355 | 0.0 | 0.0 | 0.00 | 0.04 | 0.04 | 66 | 1011.7 |
| 20260508202603 | 57 | 345 | 0.0 | 0.0 | 0.00 | 0.04 | 0.04 | 67 | 1011.7 |
| 20260508201603 | 57 | 345 | 0.0 | 3.0 | 0.00 | 0.04 | 0.04 | 65 | 1011.4 |
| 20260508200603 | 57 | 348 | 1.0 | 6.0 | 0.00 | 0.04 | 0.04 | 66 | 1011.5 |
| 20260508195604 | 57 | 350 | 0.0 | 4.0 | 0.00 | 0.04 | 0.04 | 66 | 1011.6 |
| 20260508194603 | 57 | 359 | 1.0 | 9.0 | 0.00 | 0.04 | 0.04 | 64 | 1011.8 |
| 20260508193602 | 57 | 351 | 4.0 | 11.0 | 0.00 | 0.04 | 0.04 | 63 | 1011.6 |
| 20260508192603 | 57 | 21 | 4.0 | 11.0 | 0.00 | 0.04 | 0.04 | 63 | 1011.9 |
| 20260508191603 | 57 | 337 | 1.0 | 8.0 | 0.00 | 0.04 | 0.04 | 66 | 1012.0 |
| 20260508190624 | 56 | 325 | 3.0 | 8.0 | 0.00 | 0.04 | 0.04 | 66 | 1012.0 |
| 20260508185603 | 55 | 305 | 1.0 | 8.0 | 0.00 | 0.04 | 0.04 | 67 | 1012.2 |
| 20260508184603 | 55 | 283 | 2.0 | 6.0 | 0.00 | 0.04 | 0.04 | 66 | 1012.4 |
| 20260508183603 | 56 | 276 | 0.0 | 12.0 | 0.00 | 0.04 | 0.04 | 63 | 1012.2 |
| 20260508182624 | 57 | 286 | 2.0 | 9.0 | 0.00 | 0.04 | 0.04 | 58 | 1012.3 |
| 20260508181604 | 58 | 263 | 4.0 | 7.0 | 0.00 | 0.04 | 0.04 | 53 | 1011.9 |
| 20260508180603 | 58 | 266 | 4.0 | 13.0 | 0.00 | 0.04 | 0.04 | 52 | 1011.5 |
| 20260508175603 | 59 | 245 | 4.0 | 12.0 | 0.00 | 0.04 | 0.04 | 52 | 1011.4 |
| 20260508174603 | 58 | 236 | 9.0 | 18.0 | 0.00 | 0.04 | 0.04 | 52 | 1011.5 |
| 20260508173603 | 57 | 272 | 5.0 | 11.0 | 0.00 | 0.04 | 0.04 | 51 | 1011.5 |
| 20260508172604 | 58 | 260 | 2.0 | 14.0 | 0.00 | 0.04 | 0.04 | 51 | 1011.6 |
| 20260508171603 | 59 | 280 | 10.0 | 24.0 | 0.00 | 0.04 | 0.04 | 51 | 1011.6 |
| 20260508170603 | 58 | 314 | 2.0 | 14.0 | 0.00 | 0.04 | 0.04 | 54 | 1011.5 |
| 20260508165603 | 57 | 223 | 3.0 | 13.0 | 0.00 | 0.04 | 0.04 | 57 | 1011.8 |
| 20260508164603 | 57 | 291 | 5.0 | 12.0 | 0.00 | 0.04 | 0.04 | 54 | 1011.8 |
| 20260508162603 | 58 | 222 | 3.0 | 14.0 | 0.00 | 0.04 | 0.04 | 54 | 1012.0 |
| 20260508161603 | 58 | 265 | 4.0 | 11.0 | 0.00 | 0.04 | 0.04 | 54 | 1012.1 |
| 20260508160603 | 58 | 277 | 3.0 | 18.0 | 0.00 | 0.04 | 0.04 | 54 | 1012.2 |
| 20260508155603 | 58 | 225 | 6.0 | 23.0 | 0.00 | 0.04 | 0.04 | 51 | 1012.2 |
| 20260508153603 | 56 | 269 | 4.0 | 8.0 | 0.00 | 0.04 | 0.04 | 54 | 1012.3 |
| 20260508152603 | 57 | 238 | 2.0 | 11.0 | 0.00 | 0.04 | 0.04 | 50 | 1012.4 |
| 20260508151624 | 58 | 229 | 6.0 | 12.0 | 0.00 | 0.04 | 0.04 | 52 | 1012.4 |
| 20260508150603 | 58 | 231 | 0.0 | 10.0 | 0.00 | 0.04 | 0.04 | 54 | 1012.3 |
| 20260508145603 | 58 | 273 | 4.0 | 11.0 | 0.00 | 0.04 | 0.04 | 52 | 1012.2 |
| 20260508144603 | 56 | 244 | 0.0 | 9.0 | 0.00 | 0.04 | 0.04 | 57 | 1012.3 |
| 20260508143624 | 56 | 224 | 2.0 | 5.0 | 0.00 | 0.04 | 0.04 | 57 | 1012.4 |
| 20260508142602 | 56 | 218 | 1.0 | 6.0 | 0.00 | 0.04 | 0.04 | 59 | 1012.4 |
| 20260508141603 | 56 | 218 | 3.0 | 8.0 | 0.00 | 0.04 | 0.04 | 60 | 1012.3 |
| 20260508140602 | 55 | 256 | 1.0 | 7.0 | 0.00 | 0.04 | 0.04 | 61 | 1012.6 |
| 20260508135603 | 55 | 258 | 0.0 | 11.0 | 0.00 | 0.04 | 0.04 | 63 | 1012.8 |
| 20260508134603 | 53 | 236 | 0.0 | 10.0 | 0.00 | 0.04 | 0.04 | 64 | 1012.9 |
| 20260508133603 | 53 | 280 | 1.0 | 8.0 | 0.00 | 0.04 | 0.04 | 65 | 1012.7 |
| 20260508132602 | 52 | 280 | 2.0 | 6.0 | 0.00 | 0.04 | 0.04 | 68 | 1012.6 |
| 20260508131603 | 52 | 287 | 0.0 | 4.0 | 0.00 | 0.04 | 0.04 | 71 | 1012.5 |
| 20260508130603 | 51 | 288 | 0.0 | 9.0 | 0.00 | 0.04 | 0.04 | 72 | 1012.8 |
| 20260508125603 | 51 | 306 | 0.0 | 7.0 | 0.00 | 0.04 | 0.04 | 75 | 1012.8 |
| 20260508124603 | 50 | 309 | 0.0 | 0.0 | 0.00 | 0.04 | 0.04 | 78 | 1012.8 |
| 20260508123602 | 49 | 308 | 0.0 | 10.0 | 0.00 | 0.04 | 0.04 | 79 | 1012.8 |
| 20260508122603 | 48 | 317 | 1.0 | 5.0 | 0.00 | 0.04 | 0.04 | 81 | 1013.0 |
| 20260508121602 | 47 | 317 | 0.0 | 6.0 | 0.00 | 0.04 | 0.04 | 85 | 1013.0 |
| 20260508120603 | 46 | 322 | 0.0 | 0.0 | 0.00 | 0.04 | 0.04 | 87 | 1013.1 |
| 20260508115624 | 46 | 322 | 0.0 | 5.0 | 0.00 | 0.04 | 0.04 | 90 | 1012.9 |
| 20260508114625 | 45 | 312 | 0.0 | 6.0 | 0.00 | 0.04 | 0.04 | 93 | 1013.0 |
| 20260508113603 | 44 | 331 | 0.0 | 0.0 | 0.00 | 0.04 | 0.04 | 94 | 1013.0 |
| 20260508112603 | 44 | 331 | 0.0 | 0.0 | 0.00 | 0.04 | 0.04 | 94 | 1012.8 |
| 20260508111603 | 44 | 331 | 0.0 | 0.0 | 0.00 | 0.04 | 0.04 | 94 | 1012.7 |
| 20260508110602 | 43 | 331 | 0.0 | 0.0 | 0.00 | 0.04 | 0.04 | 94 | 1012.7 |
| 20260508105625 | 43 | 331 | 0.0 | 0.0 | 0.00 | 0.04 | 0.04 | 94 | 1012.6 |
| 20260508104603 | 42 | 331 | 0.0 | 0.0 | 0.00 | 0.04 | 0.04 | 94 | 1012.6 |
| 20260508103603 | 42 | 331 | 0.0 | 0.0 | 0.00 | 0.04 | 0.04 | 95 | 1012.5 |
| 20260508102632 | 42 | 331 | 0.0 | 0.0 | 0.00 | 0.04 | 0.04 | 94 | 1012.3 |
| 20260508101603 | 41 | 331 | 0.0 | 0.0 | 0.00 | 0.04 | 0.04 | 94 | 1012.3 |
| 20260508100603 | 41 | 331 | 0.0 | 0.0 | 0.00 | 0.04 | 0.04 | 93 | 1012.1 |
| 20260508095623 | 42 | 331 | 0.0 | 0.0 | 0.00 | 0.04 | 0.04 | 93 | 1012.0 |
| 20260508094603 | 42 | 331 | 0.0 | 0.0 | 0.00 | 0.04 | 0.04 | 93 | 1012.0 |
| 20260508093603 | 43 | 331 | 0.0 | 0.0 | 0.00 | 0.04 | 0.04 | 93 | 1012.0 |
| 20260508092603 | 43 | 331 | 0.0 | 0.0 | 0.00 | 0.04 | 0.04 | 93 | 1011.9 |
| 20260508091603 | 43 | 331 | 0.0 | 0.0 | 0.00 | 0.04 | 0.04 | 93 | 1011.9 |
| 20260508090602 | 44 | 331 | 0.0 | 0.0 | 0.00 | 0.04 | 0.04 | 93 | 1011.9 |
| 20260508085603 | 44 | 331 | 0.0 | 0.0 | 0.00 | 0.04 | 0.04 | 93 | 1011.7 |
| 20260508084602 | 44 | 331 | 0.0 | 0.0 | 0.00 | 0.04 | 0.04 | 93 | 1011.7 |
| 20260508083603 | 44 | 331 | 0.0 | 0.0 | 0.00 | 0.04 | 0.04 | 93 | 1011.5 |
| 20260508081625 | 45 | 331 | 0.0 | 0.0 | 0.00 | 0.04 | 0.04 | 92 | 1011.4 |
| 20260508080604 | 45 | 331 | 0.0 | 0.0 | 0.00 | 0.04 | 0.04 | 92 | 1011.4 |
| 20260508075605 | 45 | 331 | 0.0 | 0.0 | 0.00 | 0.04 | 0.04 | 92 | 1011.4 |
| 20260508074604 | 45 | 331 | 0.0 | 0.0 | 0.00 | 0.05 | 0.04 | 91 | 1011.3 |
| 20260508073604 | 45 | 331 | 0.0 | 0.0 | 0.00 | 0.05 | 0.04 | 91 | 1011.4 |
| 20260508072604 | 45 | 331 | 0.0 | 0.0 | 0.00 | 0.05 | 0.04 | 91 | 1011.6 |
| 20260508071604 | 45 | 331 | 0.0 | 0.0 | 0.00 | 0.05 | 0.04 | 91 | 1011.3 |
| 20260508070605 | 45 | 331 | 0.0 | 4.0 | 0.00 | 0.05 | 0.04 | 90 | 1011.6 |
| 20260508065604 | 45 | 330 | 0.0 | 3.0 | 0.03 | 0.06 | 0.04 | 90 | 1011.9 |
| 20260508064603 | 45 | 330 | 0.0 | 1.0 | 0.02 | 0.06 | 0.03 | 90 | 1011.8 |
| 20260508063604 | 46 | 331 | 0.0 | 0.0 | 0.02 | 0.08 | 0.03 | 90 | 1011.7 |
| 20260508062604 | 46 | 331 | 0.0 | 0.0 | 0.01 | 0.07 | 0.02 | 88 | 1011.8 |
| 20260508061605 | 47 | 331 | 0.0 | 0.0 | 0.01 | 0.08 | 0.02 | 86 | 1011.9 |
| 20260508060625 | 48 | 331 | 0.0 | 0.0 | 0.00 | 0.09 | 0.01 | 83 | 1011.9 |
| 20260508055625 | 49 | 327 | 3.0 | 12.0 | 0.01 | 0.09 | 0.01 | 78 | 1012.0 |
| 20260508054604 | 49 | 334 | 1.0 | 6.0 | 0.00 | 0.10 | 0.00 | 69 | 1011.9 |
| 20260508053604 | 47 | 335 | 1.0 | 6.0 | 0.00 | 0.11 | 0.00 | 74 | 1011.3 |
| 20260508052604 | 45 | 336 | 0.0 | 0.0 | 0.00 | 0.12 | 0.00 | 85 | 1010.9 |
| 20260508051605 | 45 | 336 | 0.0 | 0.0 | 0.00 | 0.12 | 0.00 | 85 | 1009.4 |
| 20260508050603 | 45 | 336 | 0.0 | 0.0 | 0.00 | 0.12 | 0.00 | 84 | 1009.3 |
| 20260508045604 | 45 | 336 | 0.0 | 0.0 | 0.00 | 0.12 | 0.00 | 84 | 1009.4 |
| 20260508044604 | 45 | 336 | 0.0 | 0.0 | 0.00 | 0.12 | 0.00 | 83 | 1009.2 |
| 20260508043604 | 45 | 336 | 0.0 | 0.0 | 0.00 | 0.12 | 0.00 | 84 | 1009.2 |
| 20260508042604 | 45 | 336 | 0.0 | 0.0 | 0.00 | 0.12 | 0.00 | 83 | 1009.6 |
| 20260508041604 | 45 | 336 | 0.0 | 0.0 | 0.00 | 0.12 | 0.00 | 83 | 1009.4 |
| 20260508040625 | 45 | 336 | 0.0 | 0.0 | 0.00 | 0.12 | 0.00 | 83 | 1009.3 |
| 20260508035603 | 45 | 336 | 0.0 | 0.0 | 0.00 | 0.12 | 0.12 | 82 | 1009.4 |
| 20260508034604 | 45 | 336 | 0.0 | 0.0 | 0.00 | 0.12 | 0.12 | 82 | 1009.4 |
| 20260508033604 | 45 | 336 | 0.0 | 0.0 | 0.00 | 0.12 | 0.12 | 82 | 1009.3 |
| 20260508032604 | 45 | 336 | 0.0 | 0.0 | 0.00 | 0.12 | 0.12 | 83 | 1009.4 |